Athol, MA

8:16 PM EST on February 20, 2017 (GMT -0500)
Orange Municipal

Weather History for KORE - February, 2014

Change the Weather History Date:

Wednesday, February 26, 2014

  Actual Average Record
Temperature  
Mean Temperature 14 °F -  
Max Temperature 25 °F 35 °F 60 °F (2002)
Min Temperature 1 °F 17 °F -8 °F (2003)
Degree Days  
Heating Degree Days 51    
Moisture  
Dew Point -2 °F    
Average Humidity 55    
Maximum Humidity 87    
Minimum Humidity 25    
Precipitation  
Precipitation 0.00 in - - ()
Sea Level Pressure  
Sea Level Pressure 29.86 in    
Wind  
Wind Speed 6 mph (West)    
Max Wind Speed 20 mph    
Max Gust Speed 30 mph    
Visibility 10 miles    
Events      
Averages and records for this station are not official NWS values.
T = Trace of Precipitation, MM = Missing Value Source: NWS Daily Summary

Daily Weather History Graph

Daily Weather History Graph

Search for Another Location

Airport or City:

Trip Planner

Search our weather history database for the weather conditions in past years. The results will help you decide how hot, cold, wet, or windy it might be!

Date:

Astronomy

Feb. 26, 2014 Rise Set
Actual Time 6:29 AM EST 5:35 PM EST
Civil Twilight 6:01 AM EST 6:03 PM EST
Nautical Twilight 5:28 AM EST 6:36 PM EST
Astronomical Twilight 4:55 AM EST 7:08 PM EST
Moon 4:16 AM EST (2/26) 2:43 PM EST (2/26)
Length of Visible Light 12h 02m
Length of Day
11h 05m
Waning Crescent, 10% of the Moon is Illuminated
Feb 26
Waning Crescent
Mar 1
New
Mar 8
First Quarter
Mar 16
Full
Mar 23
Last Quarter

Hourly Weather History & Observations

Time (EST) Temp. Windchill Dew Point Humidity Pressure Visibility Wind Dir Wind Speed Gust Speed Precip Events Conditions
12:52 AM 8.1 °F 1.4 °F 1.0 °F 73% 29.94 in 10.0 mi South 3.5 mph - N/A   Clear
1:52 AM 6.1 °F -5.6 °F 1.0 °F 80% 29.93 in 10.0 mi SSW 6.9 mph - N/A   Clear
2:52 AM 6.1 °F - 1.9 °F 83% 29.93 in 10.0 mi Calm Calm - N/A   Clear
3:52 AM 3.9 °F - -0.9 °F 80% 29.91 in 10.0 mi Calm Calm - N/A   Scattered Clouds
4:52 AM 3.0 °F - -0.9 °F 84% 29.90 in 10.0 mi Calm Calm - N/A   Scattered Clouds
5:52 AM 3.9 °F - -0.0 °F 84% 29.88 in 10.0 mi Calm Calm - N/A   Overcast
6:52 AM 5.0 °F - 1.9 °F 87% 29.86 in 10.0 mi Calm Calm - N/A   Overcast
7:52 AM 8.1 °F 1.4 °F 3.9 °F 83% 29.87 in 10.0 mi NW 3.5 mph - N/A   Partly Cloudy
8:52 AM 12.9 °F - 7.0 °F 77% 29.86 in 10.0 mi Calm Calm - N/A   Clear
9:52 AM 19.0 °F 10.0 °F 5.0 °F 54% 29.84 in 10.0 mi West 6.9 mph - N/A   Mostly Cloudy
10:52 AM 23.0 °F 10.1 °F 5.0 °F 46% 29.83 in 10.0 mi West 15.0 mph 24.2 mph N/A   Clear
11:52 AM 24.1 °F 9.8 °F 1.0 °F 37% 29.81 in 10.0 mi West 19.6 mph 29.9 mph N/A   Overcast
12:52 PM 24.1 °F 11.0 °F -0.0 °F 35% 29.79 in 10.0 mi West 16.1 mph 23.0 mph N/A   Overcast
1:52 PM 25.0 °F 11.3 °F -0.9 °F 33% 29.79 in 10.0 mi WNW 18.4 mph 25.3 mph N/A   Mostly Cloudy
2:04 PM 21.9 °F 7.3 °F 3.0 °F 44% 29.76 in 10.0 mi WNW 18.4 mph 28.8 mph N/A   Overcast
2:52 PM 21.9 °F 8.2 °F -0.9 °F 37% 29.81 in 10.0 mi WNW 16.1 mph 26.5 mph N/A   Overcast
3:52 PM 21.0 °F 7.6 °F -7.1 °F 29% 29.81 in 10.0 mi West 15.0 mph 27.6 mph N/A   Partly Cloudy
4:52 PM 19.0 °F 4.5 °F -11.9 °F 25% 29.84 in 10.0 mi West 16.1 mph 20.7 mph N/A   Clear
5:52 PM 15.1 °F 1.1 °F -8.0 °F 36% 29.86 in 10.0 mi NW 12.7 mph - N/A   Clear
6:52 PM 12.9 °F 1.6 °F -9.9 °F 35% 29.88 in 10.0 mi WNW 8.1 mph - N/A   Clear
7:52 PM 12.0 °F 1.5 °F -9.9 °F 37% 29.86 in 10.0 mi NW 6.9 mph - N/A   Clear
8:52 PM 10.0 °F 0.4 °F -9.9 °F 40% 29.86 in 10.0 mi WNW 5.8 mph - N/A   Clear
9:52 PM 9.0 °F -0.9 °F -9.9 °F 42% 29.87 in 10.0 mi West 5.8 mph - N/A   Clear
10:52 PM 3.9 °F - -9.0 °F 55% 29.88 in 10.0 mi Calm Calm - N/A   Clear
11:52 PM 1.0 °F -11.7 °F -8.0 °F 66% 29.88 in 10.0 mi SSW 6.9 mph - N/A   Clear